Preview of NWS' New Version of Forecast
This preview is not operational and should not be used for support decisions.

Regional Weather Roundup (RWR)

Issued by Kansas City/Pleasant Hill, MO (EAX)

                            
561 
ASUS43 KEAX 212310
RWREAX

WEATHER ROUNDUP FOR EASTERN KANSAS AND NORTHWEST MISSOURI
NATIONAL WEATHER SERVICE KANSAS CITY/PLEASANT HILL MO
600 PM CDT THU JUN 21 2018

KSZ040-057-103>105-MOZ028-029-037-043-220000-
...KANSAS CITY METROPOLITAN AREA...
  
CITY           SKY/WX    TMP DP  RH WIND       PRES   REMARKS
K.C. INTL      CLOUDY    70  64  81 NW12G20   29.74S                  
K.C. DOWNTOWN  CLOUDY    70  63  78 NW10      29.73R                  
LEES SUMMIT    NOT AVBL                                               
OLATHE - IXD   PTSUNNY   69  65  86 W18G28    29.77S                  
OLATHE - OJC   CLOUDY    68  63  84 W12       29.76R                  

$$
 
MOZ001>008-011>017-020>025-030>033-038>040-044>046-053-054-220000-
...NORTHERN AND CENTRAL MISSOURI...
  
CITY           SKY/WX    TMP DP  RH WIND       PRES   REMARKS
ST. JOSEPH     CLOUDY    72  65  78 NW10      29.75R                  
MOSBY          CLOUDY    70  64  83 NW9       29.72R                  
WARRENSBURG    CLOUDY    70  61  73 W15       29.72S                  
WHITEMAN AFB   LGT RAIN  69  63  81 NW15      29.68S                  
CLINTON        CLOUDY    72  63  73 W15G21    29.74S                  
SEDALIA        LGT RAIN  68  65  90 W8        29.72F FOG              
WARSAW         NOT AVBL                                               
CHILLICOTHE      N/A     72  64  76 VRB5      29.72S                  
KIRKSVILLE     CLOUDY    67  67 100 NW3       29.72F                  

$$

MOZ041-047>049-056>058-063>065-088>090-097-220000-
...EASTERN AND SOUTHERN MISSOURI...
  
CITY           SKY/WX    TMP DP  RH WIND       PRES   REMARKS
ST. LOUIS INTL CLOUDY    78  61  55 W30G41    29.71R                  
SPIRIT OF STL  CLOUDY    71  62  73 W12       29.71R                  
COLUMBIA       CLOUDY    70  62  76 W12       29.71F                  
JEFFERSON CITY CLOUDY    68  64  87 W9        29.72S                  
ROLLA          CLOUDY    70  62  76 SW5       29.74F                  
OSAGE BEACH    CLOUDY    72  63  73 W7        29.74F                  
SPRINGFIELD    CLOUDY    78  57  48 W8        29.76F                  
BRANSON        PTSUNNY   81  57  44 W10G22    29.81F                  
JOPLIN         CLOUDY    81  57  43 NW12      29.78S                  
WEST PLAINS    CLOUDY    78  59  51 W7        29.79S                  

$$

IAZ060-094-KSZ022-034>040-054-083-096-NEZ052-066-093-220000- 
...KANSAS...SOUTHEAST NEBRASKA AND IOWA...
  
CITY           SKY/WX    TMP DP  RH WIND       PRES   REMARKS
TOPEKA         LGT RAIN  67  66  97 W9        29.79R                  
MANHATTAN      CLOUDY    73  62  68 NW10G22   29.83S                  
EMPORIA        PTSUNNY   78  58  49 NW22G35   29.82S                  
CHANUTE        PTSUNNY   81  57  43 NW21G37   29.79S                  
WICHITA        MOSUNNY   89  50  26 NW29G41   29.83F                  
OMAHA          PTSUNNY   75  64  68 N13       29.78S                  
LINCOLN        CLOUDY    68  61  78 N16       29.84S                  
FALLS CITY     CLOUDY    71  63  75 NW8       29.77R                  
LAMONI         CLOUDY    73  62  68 N9        29.73S                  
DES MOINES     CLOUDY    71  67  87 N14G20    29.73R                  

$$